[[{"header":{"parameterUnit":"m.s-1","parameterCategory":2,"la1":30.2991,"la2":30.254,"lo1":-89.0895,"lo2":-89.0444,"dy":0.0017,"dx":0.0017,"nx":28,"ny":28,"refTime":"2025-11-05T03:00:00:Z","depth":"0","parameterNumber":2,"parameterNumberName":"U-component_of_CURRENTS"},"data":[0,0,0,0,0,0,0,0,0,0,0,0,0,0,0,0,0,0,0,0,0,0,0,0,0,0,0,0,0,0,0,0,0,0,0,0,0,0,0,0,0,0,0,0,0,0,0,0,0,0,0,0,0,0,0,0,0,0,-0.2672,-0.2673,0,-0.2784,-0.2785,-0.2786,-0.2807,-0.2806,-0.2806,-0.2805,-0.2823,-0.2824,-0.2825,0,0,0,0,0,0,0,0,0,0,0,0,0,-0.2432,-0.2436,-0.2671,-0.2673,-0.2675,-0.2784,-0.2785,-0.2786,-0.2807,-0.2806,-0.2806,-0.2805,-0.2823,-0.2824,-0.2825,0,0,0,0,0,0,0,0,0,0,0,0,0,-0.2534,-0.2437,-0.2671,-0.2703,-0.2707,-0.2784,-0.2785,-0.2786,-0.2807,-0.2806,-0.2806,-0.2805,-0.2823,-0.2824,-0.2825,-0.2846,0,0,-0.2829,-0.283,0,0,0,0,0,0,0,0,-0.2528,-0.2542,-0.2696,-0.2701,-0.2706,-0.2786,-0.2708,-0.2803,-0.2807,-0.2763,-0.2805,-0.2805,-0.2806,-0.2808,-0.2825,-0.2846,-0.2847,-0.2829,-0.283,-0.283,-0.2831,0,0,0,0,0,0,0,-0.2521,-0.2537,-0.271,-0.2698,-0.2704,-0.2697,-0.2711,-0.2726,-0.2781,-0.2767,-0.277,-0.2792,-0.2807,-0.2823,-0.2825,-0.2847,-0.2829,-0.283,-0.2831,-0.2832,-0.2894,-0.2895,0,0,0,0,0,0,-0.2522,-0.2532,-0.2707,-0.2714,-0.262,-0.2703,-0.2717,-0.2756,-0.2783,-0.2789,-0.2792,-0.2792,-0.2821,-0.2823,-0.2826,-0.2804,-0.283,-0.2832,-0.2832,-0.2893,-0.2894,-0.2895,0,0,0,0,0,0,-0.2517,-0.2538,-0.2703,-0.2628,-0.2649,-0.2708,-0.2751,-0.2759,-0.2767,-0.2804,-0.2806,-0.2792,-0.2821,-0.2824,-0.285,-0.2807,-0.2832,-0.2833,-0.2892,-0.2893,-0.2895,-0.2792,0,0,0,0,0,0,-0.251,-0.2535,-0.2532,-0.2629,-0.2654,-0.2722,-0.2752,-0.2762,-0.2785,-0.2785,-0.2805,-0.2806,-0.2821,-0.2848,-0.2851,-0.2809,-0.2834,-0.2891,-0.2893,-0.2894,-0.2794,-0.2789,-0.2785,0,0,0,0,0,-0.2501,-0.2488,-0.2532,-0.2552,-0.2659,-0.2722,-0.2732,-0.2768,-0.2785,-0.2775,-0.2816,-0.2805,-0.286,-0.285,-0.2854,-0.281,-0.289,-0.2892,-0.2894,-0.2796,-0.279,-0.2786,0,0,0,0,0,0,-0.2356,-0.2493,-0.2542,-0.2566,-0.2636,-0.2727,-0.271,-0.2762,-0.2789,-0.2781,-0.2822,-0.2827,-0.2837,-0.2855,-0.2844,-0.2842,-0.2871,-0.2873,-0.2795,-0.279,-0.2786,-0.2751,-0.2835,0,0,0,0,0,-0.2337,-0.2375,-0.25,-0.2512,-0.2543,-0.2633,-0.2654,-0.2697,-0.2751,-0.2761,-0.2795,-0.2826,-0.2852,-0.2845,-0.2878,-0.287,-0.2862,-0.2849,-0.2844,-0.284,-0.282,-0.2795,-0.2784,-0.2902,-0.2901,-0.2901,0,0,-0.2288,-0.2362,-0.2384,-0.2485,-0.2535,-0.2574,-0.264,-0.267,-0.2691,-0.2757,-0.2771,-0.2818,-0.2857,-0.2857,-0.2859,-0.2857,-0.2804,-0.2842,-0.2837,-0.282,-0.2796,-0.2783,-0.2772,-0.2903,-0.2903,-0.2902,0,0,-0.2218,-0.2273,-0.2294,-0.2351,-0.2438,-0.2497,-0.2509,-0.2612,-0.2631,-0.2674,-0.2731,-0.2752,-0.2796,-0.2807,-0.2819,-0.2811,-0.2798,-0.2829,-0.2747,-0.2723,-0.2711,-0.2701,-0.2662,-0.2649,-0.2804,-0.2803,-0.2803,0,-0.2156,-0.2213,-0.2297,-0.233,-0.2367,-0.2464,-0.249,-0.2522,-0.262,-0.2636,-0.2657,-0.2735,-0.276,-0.2756,-0.2757,-0.2789,-0.2782,-0.2752,-0.271,-0.27,-0.2691,-0.2654,-0.2641,-0.2799,-0.2799,-0.28,-0.28,0,-0.2128,-0.2164,-0.2164,-0.2257,-0.2293,-0.2321,-0.2408,-0.2434,-0.248,-0.2531,-0.2555,-0.2606,-0.2648,-0.2656,-0.2698,-0.266,-0.2678,-0.2718,-0.2705,-0.2672,-0.2637,-0.2624,-0.2792,-0.2794,-0.2795,-0.2796,0,0,-0.2047,-0.2137,-0.214,-0.2174,-0.2265,-0.2299,-0.2312,-0.2372,-0.2384,-0.243,-0.2441,-0.2472,-0.2514,-0.2533,-0.2584,-0.255,-0.2479,-0.2599,-0.26,-0.2526,-0.2414,-0.2354,-0.2336,-0.2513,-0.2511,-0.251,-0.2407,0,-0.2015,-0.2053,-0.211,-0.2133,-0.2166,-0.2241,-0.2253,-0.2302,-0.2343,-0.237,-0.2388,-0.2421,-0.2461,-0.2486,-0.2455,-0.251,-0.2447,-0.2502,-0.2487,-0.2485,-0.2408,-0.2319,-0.2231,-0.2126,-0.2396,-0.2394,-0.2392,0,-0.1992,-0.2025,-0.2046,-0.2107,-0.2127,-0.2143,-0.219,-0.2218,-0.2257,-0.2287,-0.2298,-0.2348,-0.2333,-0.2371,-0.2344,-0.2385,-0.2376,-0.2383,-0.238,-0.2347,-0.2402,-0.2211,-0.2095,-0.2096,-0.2374,-0.2376,-0.2377,0,-0.1925,-0.1983,-0.1995,-0.2019,-0.2095,-0.2101,-0.2135,-0.2184,-0.2208,-0.2235,-0.2253,-0.2255,-0.2269,-0.2252,-0.2281,-0.2313,-0.2239,-0.2289,-0.2202,-0.2198,-0.2128,-0.2121,-0.1978,-0.2212,-0.2212,-0.2212,-0.2213,0,-0.189,-0.1899,-0.1962,-0.1972,-0.1979,-0.2048,-0.2058,-0.2095,-0.2139,-0.2151,-0.2204,-0.2206,-0.2242,-0.2229,-0.2236,-0.2172,-0.2193,-0.2147,-0.2152,-0.2092,-0.2083,-0.209,-0.2138,-0.2209,-0.2209,-0.221,-0.2211,0,-0.182,-0.1865,-0.1882,-0.194,-0.1952,-0.1955,-0.2016,-0.2027,-0.2079,-0.2094,-0.2101,-0.2156,-0.2133,-0.2145,-0.2123,-0.2107,-0.2026,-0.2031,-0.1949,-0.1944,-0.1856,-0.1903,-0.1778,-0.1724,-0.1894,-0.1892,-0.189,0,-0.1787,-0.1789,-0.1837,-0.1842,-0.1864,-0.1886,-0.1904,-0.1977,-0.1998,-0.2058,-0.2054,-0.2053,-0.2032,-0.1969,-0.1933,-0.1868,-0.1914,-0.1761,-0.1789,-0.1787,-0.1845,-0.1893,-0.1862,-0.1657,-0.1653,-0.165,-0.1647,0,-0.1716,-0.1731,-0.1746,-0.1757,-0.1771,-0.1791,-0.1823,-0.1834,-0.1915,-0.1932,-0.1935,-0.1918,-0.1865,-0.1772,-0.1707,-0.1668,-0.1722,-0.1694,-0.1711,-0.1634,-0.1658,-0.1631,-0.1796,-0.162,-0.1623,-0.1625,-0.1626,-0.1627,-0.1647,-0.1638,-0.1655,-0.1655,-0.1673,-0.1673,-0.1655,-0.1704,-0.1712,-0.1721,-0.1774,-0.1731,-0.1685,-0.157,-0.152,-0.1427,-0.15,-0.1409,-0.1461,-0.1505,-0.1456,-0.1543,-0.1374,-0.1375,-0.1376,-0.1377,-0.1378,0,-0.1553,-0.1551,-0.1552,-0.1548,-0.1523,-0.1567,-0.1581,-0.155,-0.1521,-0.1565,-0.1548,-0.1517,-0.1414,-0.1388,-0.1303,-0.1239,-0.1216,-0.1225,-0.1276,-0.125,-0.1322,-0.1315,-0.1102,-0.1102,-0.1102,-0.1102,-0.1102,-0.1102,-0.1502,-0.1465,-0.1466,-0.139,-0.1384,-0.132,-0.1302,-0.1279,-0.1289,-0.1242,-0.1258,-0.1258,-0.1287,-0.1386,-0.1283,-0.1203,-0.1196,-0.1146,-0.1186,-0.1269,-0.1292,-0.1313,-0.1314,-0.1104,-0.1104,-0.1052,-0.1052,-0.1052]},{"header":{"parameterUnit":"m.s-1","parameterCategory":2,"la1":30.2991,"la2":30.254,"lo1":-89.0895,"lo2":-89.0444,"dy":0.0017,"dx":0.0017,"nx":28,"ny":28,"refTime":"2025-11-05T03:00:00:Z","depth":"0","parameterNumber":3,"parameterNumberName":"V-component_of_CURRENTS"},"data":[0,0,0,0,0,0,0,0,0,0,0,0,0,0,0,0,0,0,0,0,0,0,0,0,0,0,0,0,0,0,0,0,0,0,0,0,0,0,0,0,0,0,0,0,0,0,0,0,0,0,0,0,0,0,0,0,0,0,-0.0002,-0.0,0,0.015,0.0152,0.0153,0.0257,0.0258,0.0259,0.0259,0.0469,0.0474,0.0478,0,0,0,0,0,0,0,0,0,0,0,0,0,-0.0188,-0.0185,-0.0002,-0.0,0.0002,0.015,0.0152,0.0154,0.0257,0.0258,0.0259,0.026,0.0467,0.0473,0.0479,0,0,0,0,0,0,0,0,0,0,0,0,0,-0.0079,-0.0184,-0.0003,0.0071,0.008,0.0149,0.0152,0.0154,0.0257,0.0258,0.0259,0.026,0.0466,0.0473,0.048,0.05,0,0,0.0502,0.0505,0,0,0,0,0,0,0,0,-0.0086,-0.0073,0.0059,0.0067,0.0076,0.0186,0.0163,0.0273,0.0256,0.0189,0.026,0.0261,0.0379,0.0394,0.0418,0.051,0.0519,0.0502,0.0507,0.051,0.0512,0,0,0,0,0,0,0,-0.0093,-0.0079,0.0058,0.0061,0.0071,0.0102,0.0119,0.0184,0.0276,0.0195,0.0203,0.022,0.0384,0.0411,0.0424,0.0522,0.0502,0.0509,0.0513,0.0516,0.0658,0.0657,0,0,0,0,0,0,-0.0113,-0.0086,0.0053,0.0062,-0.0003,0.0105,0.0123,0.0149,0.0274,0.0294,0.0219,0.0225,0.0398,0.0415,0.0432,0.0442,0.051,0.0517,0.0521,0.0658,0.0657,0.0657,0,0,0,0,0,0,-0.0117,-0.0101,0.0047,-0.0009,0.0013,0.0107,0.0135,0.0151,0.0176,0.0292,0.0314,0.0226,0.0399,0.0421,0.0484,0.0452,0.052,0.0527,0.0659,0.0658,0.0657,0.0477,0,0,0,0,0,0,-0.0123,-0.0104,-0.0104,-0.001,0.0015,0.0068,0.0134,0.0154,0.0185,0.0194,0.0305,0.0326,0.0402,0.0472,0.0491,0.0463,0.0532,0.066,0.0658,0.0657,0.0484,0.047,0.0458,0,0,0,0,0,-0.013,-0.0137,-0.0105,-0.0088,0.0017,0.0066,0.008,0.0151,0.0184,0.018,0.0263,0.0323,0.0479,0.0477,0.0499,0.0473,0.066,0.0659,0.0657,0.0489,0.0473,0.0459,0,0,0,0,0,0,-0.0218,-0.0124,-0.0087,-0.0064,-0.0012,0.0084,0.0087,0.0136,0.0198,0.0208,0.0318,0.0343,0.0386,0.0458,0.0454,0.0514,0.0578,0.0581,0.0443,0.0428,0.0416,0.0401,0.0538,0,0,0,0,0,-0.0238,-0.0217,-0.0128,-0.0113,-0.0093,-0.0007,0.0019,0.0066,0.0139,0.0167,0.0247,0.0333,0.0398,0.0434,0.0507,0.0537,0.0599,0.0536,0.0524,0.0512,0.0517,0.0563,0.0554,0.0652,0.0652,0.0653,0,0,-0.0266,-0.0214,-0.02,-0.0132,-0.0084,-0.0065,0.0011,0.004,0.0056,0.018,0.0218,0.0292,0.0398,0.0433,0.0458,0.0487,0.0515,0.051,0.0499,0.0512,0.0561,0.0551,0.0542,0.0652,0.0652,0.0652,0,0,-0.0315,-0.0269,-0.0268,-0.0233,-0.0173,-0.0123,-0.0122,-0.0038,-0.0004,0.0041,0.0131,0.018,0.0289,0.0347,0.0394,0.0356,0.0447,0.0382,0.0304,0.0347,0.0338,0.0332,0.0382,0.0381,0.0373,0.0373,0.0373,0,-0.0353,-0.0329,-0.0266,-0.0259,-0.0236,-0.0157,-0.0156,-0.0118,-0.0025,0.0002,0.0031,0.0175,0.0245,0.0297,0.028,0.0323,0.0374,0.0343,0.0326,0.0322,0.0318,0.0371,0.0373,0.0364,0.0365,0.0366,0.0367,0,-0.0391,-0.0379,-0.0382,-0.034,-0.0317,-0.0308,-0.0243,-0.0223,-0.0175,-0.0118,-0.0062,0.0029,0.0121,0.0134,0.0195,0.0207,0.0259,0.03,0.0353,0.0296,0.0357,0.0362,0.0351,0.0355,0.0357,0.0359,0,0,-0.0443,-0.0414,-0.0413,-0.0409,-0.0358,-0.0339,-0.0333,-0.0286,-0.0269,-0.0207,-0.0173,-0.0099,-0.0041,0.0017,0.009,0.0116,0.0111,0.0185,0.0191,0.0214,0.0216,0.026,0.0271,0.0147,0.0147,0.0148,0.0261,0,-0.0485,-0.0503,-0.0468,-0.0483,-0.0485,-0.0425,-0.042,-0.0374,-0.0322,-0.0276,-0.0199,-0.0135,-0.0087,-0.0048,-0.0021,0.0099,0.0121,0.0078,0.0288,0.0294,0.0322,0.0276,0.032,0.0426,0.0266,0.0267,0.0268,0,-0.0521,-0.0527,-0.0555,-0.0543,-0.0537,-0.0537,-0.0503,-0.0484,-0.0411,-0.0369,-0.0307,-0.0221,-0.0159,-0.0116,0.0021,-0.0004,0.0086,0.0162,0.0169,0.0282,0.0348,0.0465,0.0443,0.059,0.0277,0.0276,0.0276,0,-0.0576,-0.0581,-0.0608,-0.0604,-0.0583,-0.0585,-0.0569,-0.0512,-0.0492,-0.0418,-0.0385,-0.029,-0.0223,-0.012,0.0035,0.0033,0.0192,0.0216,0.0338,0.0343,0.0461,0.0476,0.0593,0.0296,0.0295,0.0295,0.0295,0,-0.0623,-0.064,-0.0639,-0.0652,-0.0679,-0.064,-0.0646,-0.0614,-0.056,-0.053,-0.0433,-0.0379,-0.0221,-0.0101,0.002,0.0199,0.0184,0.0323,0.0371,0.0399,0.0406,0.0609,0.0667,0.0299,0.0298,0.0297,0.0297,0,-0.0669,-0.067,-0.07,-0.0702,-0.0705,-0.0721,-0.0703,-0.0699,-0.0642,-0.0599,-0.0575,-0.0434,-0.0271,-0.0106,0.009,0.0196,0.0453,0.0419,0.0443,0.0491,0.0725,0.0771,0.0959,0.1051,0.0564,0.0566,0.0567,0,-0.0693,-0.0716,-0.0744,-0.0767,-0.077,-0.0785,-0.0791,-0.0747,-0.0733,-0.0624,-0.0603,-0.0436,-0.0299,0.0002,0.0218,0.0443,0.0551,0.0611,0.0602,0.0742,0.0829,0.0859,0.0924,0.069,0.0692,0.0694,0.0695,0,-0.0734,-0.0746,-0.0772,-0.0825,-0.0848,-0.0866,-0.0867,-0.0868,-0.0799,-0.0736,-0.0616,-0.0496,-0.0193,0.0095,0.0386,0.0523,0.0727,0.0656,0.0803,0.0933,0.0976,0.1087,0.0615,0.0712,0.0711,0.0709,0.0709,0.0708,-0.0756,-0.0791,-0.083,-0.0875,-0.0906,-0.093,-0.0929,-0.0902,-0.0856,-0.0714,-0.0627,-0.0379,-0.0002,0.0423,0.0578,0.0928,0.0886,0.1036,0.108,0.1098,0.1183,0.0742,0.0888,0.0887,0.0887,0.0886,0.0886,0,-0.0777,-0.0819,-0.0873,-0.0923,-0.0959,-0.0963,-0.0961,-0.0907,-0.0829,-0.0653,-0.0502,-0.0045,0.0337,0.0696,0.1145,0.134,0.1384,0.144,0.1502,0.1549,0.1174,0.1176,0.1389,0.1389,0.1388,0.1388,0.1388,0.1388,-0.079,-0.0847,-0.088,-0.0948,-0.098,-0.0987,-0.0975,-0.0845,-0.0694,-0.0346,-0.005,0.0161,0.0621,0.1261,0.1686,0.1733,0.1907,0.1892,0.1978,0.1726,0.1692,0.1659,0.1676,0.1989,0.199,0.2353,0.2357,0.236]}],[{"header":{"parameterUnit":"m.s-1","parameterCategory":2,"la1":30.2991,"la2":30.254,"lo1":-89.0895,"lo2":-89.0444,"dy":0.0017,"dx":0.0017,"nx":28,"ny":28,"refTime":"2025-11-05T03:00:00:Z","depth":"2","parameterNumber":2,"parameterNumberName":"U-component_of_CURRENTS"},"data":[0,0,0,0,0,0,0,0,0,0,0,0,0,0,0,0,0,0,0,0,0,0,0,0,0,0,0,0,0,0,0,0,0,0,0,0,0,0,0,0,0,0,0,0,0,0,0,0,0,0,0,0,0,0,0,0,0,0,-0.2008,-0.2008,0,-0.2048,-0.2048,-0.2049,-0.2059,-0.2059,-0.2058,-0.2058,-0.2061,-0.2062,-0.2062,0,0,0,0,0,0,0,0,0,0,0,0,0,-0.1954,-0.1955,-0.2008,-0.2008,-0.2009,-0.2048,-0.2049,-0.2049,-0.2059,-0.2059,-0.2058,-0.2057,-0.2061,-0.2062,-0.2063,0,0,0,0,0,0,0,0,0,0,0,0,0,-0.1987,-0.1956,-0.2008,-0.2016,-0.2017,-0.2048,-0.2049,-0.205,-0.2059,-0.2059,-0.2058,-0.2057,-0.2061,-0.2062,-0.2063,-0.2084,0,0,-0.2065,-0.2066,0,0,0,0,0,0,0,0,-0.1985,-0.1989,-0.2015,-0.2016,-0.2017,-0.2045,-0.2031,-0.2058,-0.206,-0.2047,-0.2058,-0.2057,-0.2051,-0.2053,-0.2067,-0.2084,-0.2084,-0.2065,-0.2066,-0.2066,-0.2066,0,0,0,0,0,0,0,-0.1983,-0.1988,-0.2027,-0.2015,-0.2016,-0.2022,-0.2026,-0.2036,-0.2054,-0.2048,-0.2048,-0.2048,-0.2052,-0.2066,-0.2067,-0.2084,-0.2065,-0.2066,-0.2067,-0.2067,-0.2136,-0.2138,0,0,0,0,0,0,-0.1972,-0.1986,-0.2026,-0.2028,-0.1995,-0.2023,-0.2028,-0.2039,-0.2055,-0.2056,-0.2048,-0.2048,-0.2065,-0.2066,-0.2067,-0.2097,-0.2066,-0.2067,-0.2068,-0.2135,-0.2137,-0.2138,0,0,0,0,0,0,-0.1971,-0.1976,-0.2024,-0.2004,-0.201,-0.2025,-0.2038,-0.204,-0.2057,-0.2055,-0.2056,-0.2062,-0.2064,-0.2066,-0.2082,-0.2097,-0.2067,-0.2068,-0.2134,-0.2136,-0.2138,-0.2155,0,0,0,0,0,0,-0.197,-0.1976,-0.198,-0.2004,-0.2011,-0.2051,-0.2038,-0.2042,-0.2057,-0.2057,-0.2067,-0.2067,-0.2064,-0.2081,-0.2083,-0.2098,-0.2069,-0.2132,-0.2135,-0.2137,-0.2152,-0.2157,-0.2161,0,0,0,0,0,-0.1968,-0.1976,-0.1981,-0.1985,-0.2017,-0.2052,-0.2057,-0.2066,-0.2058,-0.2076,-0.2078,-0.2067,-0.2099,-0.2083,-0.2085,-0.21,-0.2131,-0.2134,-0.2137,-0.2151,-0.2156,-0.2161,0,0,0,0,0,0,-0.1943,-0.1979,-0.1984,-0.1999,-0.2027,-0.2052,-0.2061,-0.2071,-0.2089,-0.2084,-0.2081,-0.2082,-0.2106,-0.2105,-0.2088,-0.213,-0.2114,-0.2118,-0.2124,-0.2129,-0.2133,-0.2114,-0.207,0,0,0,0,0,-0.1942,-0.1961,-0.1996,-0.2004,-0.2021,-0.2044,-0.2057,-0.2069,-0.2086,-0.2094,-0.21,-0.2108,-0.2122,-0.2125,-0.2141,-0.2159,-0.2134,-0.2173,-0.2177,-0.2181,-0.2168,-0.2148,-0.2148,-0.2148,-0.2148,-0.2148,0,0,-0.1926,-0.1951,-0.1957,-0.2001,-0.202,-0.2046,-0.2051,-0.2077,-0.2093,-0.209,-0.2111,-0.2126,-0.2133,-0.2157,-0.2167,-0.2154,-0.217,-0.2184,-0.2187,-0.2172,-0.2151,-0.215,-0.215,-0.215,-0.215,-0.2149,0,0,-0.191,-0.1938,-0.1951,-0.1984,-0.2022,-0.2046,-0.2056,-0.2095,-0.2109,-0.2137,-0.2139,-0.2158,-0.2181,-0.2188,-0.2193,-0.223,-0.2198,-0.2243,-0.224,-0.2221,-0.222,-0.2219,-0.2187,-0.2183,-0.2239,-0.2239,-0.2239,0,-0.1888,-0.1914,-0.1958,-0.1985,-0.2003,-0.2046,-0.2064,-0.2094,-0.213,-0.2136,-0.2144,-0.2176,-0.2192,-0.2203,-0.2225,-0.2237,-0.2214,-0.2217,-0.2223,-0.2222,-0.222,-0.2187,-0.2182,-0.224,-0.224,-0.224,-0.224,0,-0.1886,-0.1911,-0.1924,-0.1973,-0.2004,-0.203,-0.2078,-0.2107,-0.2129,-0.2147,-0.2173,-0.2198,-0.2208,-0.2231,-0.224,-0.2246,-0.2229,-0.2233,-0.2202,-0.222,-0.2186,-0.218,-0.2242,-0.2241,-0.2241,-0.2241,0,0,-0.1827,-0.1905,-0.1909,-0.1931,-0.2002,-0.2025,-0.2062,-0.2101,-0.2111,-0.2152,-0.2154,-0.2201,-0.221,-0.2217,-0.2235,-0.223,-0.2215,-0.2228,-0.2227,-0.2181,-0.2157,-0.2089,-0.2076,-0.2215,-0.2214,-0.2214,-0.2137,0,-0.1809,-0.1848,-0.1895,-0.1927,-0.1955,-0.2012,-0.2041,-0.2082,-0.2116,-0.2136,-0.216,-0.2178,-0.2206,-0.2214,-0.2214,-0.2224,-0.2201,-0.2234,-0.2159,-0.2156,-0.2081,-0.2068,-0.1931,-0.1846,-0.2131,-0.213,-0.2129,0,-0.1793,-0.1825,-0.1851,-0.1913,-0.1928,-0.1951,-0.2001,-0.2033,-0.2078,-0.2102,-0.2119,-0.2143,-0.2158,-0.2175,-0.2163,-0.2181,-0.2164,-0.2162,-0.2159,-0.208,-0.2078,-0.1876,-0.1824,-0.212,-0.212,-0.2121,-0.2122,0,-0.1735,-0.1794,-0.181,-0.1834,-0.1909,-0.1922,-0.1956,-0.201,-0.2036,-0.2072,-0.2087,-0.2104,-0.2114,-0.2102,-0.2115,-0.2134,-0.2083,-0.2104,-0.2015,-0.201,-0.1869,-0.1852,-0.2063,-0.2063,-0.2063,-0.2063,-0.2063,0,-0.1706,-0.1719,-0.1782,-0.1795,-0.181,-0.1876,-0.1896,-0.1936,-0.1985,-0.2003,-0.2057,-0.2064,-0.2098,-0.2087,-0.2086,-0.2026,-0.2052,-0.1996,-0.198,-0.1873,-0.1858,-0.2081,-0.2085,-0.206,-0.2061,-0.2061,-0.2062,0,-0.1644,-0.1689,-0.1711,-0.1772,-0.1786,-0.1795,-0.186,-0.1876,-0.1934,-0.1956,-0.1966,-0.2025,-0.2007,-0.2017,-0.1997,-0.1977,-0.1936,-0.1901,-0.177,-0.1739,-0.1881,-0.1886,-0.1787,-0.1784,-0.1781,-0.1779,-0.1777,0,-0.1616,-0.162,-0.1673,-0.1682,-0.1706,-0.1735,-0.1756,-0.1833,-0.1857,-0.1924,-0.1923,-0.1931,-0.1911,-0.1855,-0.1812,-0.175,-0.1838,-0.16,-0.1612,-0.1855,-0.185,-0.186,-0.1868,-0.1433,-0.1429,-0.1425,-0.1422,0,-0.1553,-0.1571,-0.1588,-0.1605,-0.1623,-0.1648,-0.1685,-0.1698,-0.1781,-0.1801,-0.1809,-0.1794,-0.1747,-0.1627,-0.1563,-0.1521,-0.1604,-0.1522,-0.1786,-0.1534,-0.1517,-0.1515,-0.1535,-0.1389,-0.1392,-0.1395,-0.1396,-0.1398,-0.1493,-0.1486,-0.1506,-0.1511,-0.1534,-0.1538,-0.152,-0.1569,-0.1579,-0.1582,-0.1643,-0.1575,-0.1562,-0.1385,-0.1306,-0.1252,-0.1369,-0.1328,-0.1341,-0.1358,-0.134,-0.132,-0.1151,-0.1152,-0.1154,-0.1155,-0.1157,0,-0.1409,-0.1409,-0.1412,-0.1413,-0.1393,-0.1439,-0.1451,-0.1411,-0.1377,-0.1402,-0.1381,-0.1234,-0.1146,-0.1137,-0.0995,-0.0967,-0.0971,-0.0935,-0.095,-0.0982,-0.1011,-0.0978,-0.0692,-0.069,-0.0689,-0.0688,0,0,-0.1364,-0.1331,-0.133,-0.1263,-0.1261,-0.1192,-0.117,-0.1125,-0.111,-0.1047,-0.1017,-0.1091,-0.1104,-0.0908,-0.0853,-0.0749,-0.0858,-0.0706,-0.1078,-0.1127,-0.1154,-0.1233,-0.1217,0,0,0,0,0]},{"header":{"parameterUnit":"m.s-1","parameterCategory":2,"la1":30.2991,"la2":30.254,"lo1":-89.0895,"lo2":-89.0444,"dy":0.0017,"dx":0.0017,"nx":28,"ny":28,"refTime":"2025-11-05T03:00:00:Z","depth":"2","parameterNumber":3,"parameterNumberName":"V-component_of_CURRENTS"},"data":[0,0,0,0,0,0,0,0,0,0,0,0,0,0,0,0,0,0,0,0,0,0,0,0,0,0,0,0,0,0,0,0,0,0,0,0,0,0,0,0,0,0,0,0,0,0,0,0,0,0,0,0,0,0,0,0,0,0,-0.015,-0.015,0,-0.0072,-0.0071,-0.007,-0.0012,-0.0011,-0.0011,-0.001,0.0107,0.011,0.0112,0,0,0,0,0,0,0,0,0,0,0,0,0,-0.0247,-0.0246,-0.015,-0.015,-0.0149,-0.0072,-0.0071,-0.007,-0.0012,-0.0011,-0.0011,-0.001,0.0106,0.0109,0.0113,0,0,0,0,0,0,0,0,0,0,0,0,0,-0.019,-0.0245,-0.0151,-0.0111,-0.0107,-0.0072,-0.0071,-0.0069,-0.0012,-0.0011,-0.0011,-0.001,0.0105,0.0109,0.0113,0.0126,0,0,0.0126,0.0127,0,0,0,0,0,0,0,0,-0.0193,-0.0186,-0.0118,-0.0114,-0.0109,-0.0052,-0.0062,-0.0002,-0.0012,-0.0047,-0.001,-0.001,0.0056,0.0064,0.0079,0.0132,0.0137,0.0126,0.0128,0.013,0.0131,0,0,0,0,0,0,0,-0.0197,-0.0189,-0.0118,-0.0117,-0.0112,-0.0097,-0.0088,-0.005,0.0002,-0.0044,-0.004,-0.0033,0.0059,0.0075,0.0082,0.0138,0.0126,0.0129,0.0132,0.0134,0.023,0.023,0,0,0,0,0,0,-0.021,-0.0193,-0.0121,-0.0116,-0.0152,-0.0096,-0.0085,-0.007,0.0001,0.0012,-0.0033,-0.003,0.0067,0.0077,0.0086,0.0111,0.013,0.0134,0.0136,0.023,0.023,0.023,0,0,0,0,0,0,-0.0212,-0.0204,-0.0124,-0.0154,-0.0143,-0.0095,-0.0078,-0.0069,-0.0051,0.0008,0.002,-0.0025,0.0068,0.0081,0.0117,0.0116,0.0136,0.014,0.023,0.023,0.023,0.0158,0,0,0,0,0,0,-0.0215,-0.0205,-0.0203,-0.0155,-0.0142,-0.0107,-0.0078,-0.0068,-0.0048,-0.0044,0.0019,0.0031,0.007,0.011,0.0121,0.0122,0.0143,0.023,0.023,0.023,0.016,0.0155,0.0151,0,0,0,0,0,-0.0218,-0.0222,-0.0204,-0.0195,-0.0139,-0.0107,-0.01,-0.0063,-0.0049,-0.0044,-0.0003,0.0029,0.0119,0.0113,0.0126,0.0128,0.023,0.023,0.023,0.0162,0.0156,0.0151,0,0,0,0,0,0,-0.0268,-0.0215,-0.0194,-0.0181,-0.0148,-0.0098,-0.0095,-0.0068,-0.0033,-0.003,0.0027,0.0041,0.0075,0.0111,0.0103,0.0158,0.0181,0.0184,0.0125,0.012,0.0116,0.0102,0.0146,0,0,0,0,0,-0.0278,-0.0264,-0.0212,-0.0205,-0.019,-0.0144,-0.0129,-0.0102,-0.0063,-0.0047,-0.0002,0.0044,0.0085,0.0108,0.015,0.0176,0.0213,0.0188,0.0183,0.0179,0.0177,0.0224,0.0224,0.0231,0.0231,0.0231,0,0,-0.0299,-0.0267,-0.026,-0.0215,-0.0188,-0.0175,-0.0133,-0.0114,-0.0103,-0.004,-0.0015,0.0031,0.0089,0.012,0.0138,0.0149,0.0197,0.018,0.0175,0.0176,0.0224,0.0224,0.0223,0.0231,0.0231,0.0231,0,0,-0.0336,-0.0302,-0.0302,-0.0276,-0.0237,-0.0206,-0.0203,-0.0152,-0.0128,-0.0098,-0.005,-0.0007,0.0052,0.0096,0.0125,0.0122,0.0172,0.0137,0.0104,0.015,0.0149,0.0149,0.0191,0.0196,0.0135,0.0135,0.0135,0,-0.0364,-0.035,-0.0301,-0.0295,-0.0281,-0.0224,-0.0225,-0.0194,-0.0139,-0.0119,-0.0101,-0.0006,0.0042,0.0087,0.0086,0.0112,0.0144,0.0115,0.0142,0.0143,0.0145,0.0188,0.0194,0.0131,0.0132,0.0132,0.0132,0,-0.0395,-0.0385,-0.0387,-0.0355,-0.0335,-0.0328,-0.0277,-0.0256,-0.0221,-0.018,-0.0128,-0.0062,-0.0004,0.0019,0.0051,0.0087,0.0108,0.0129,0.015,0.0139,0.0186,0.0193,0.0126,0.0128,0.0129,0.0129,0,0,-0.0443,-0.0415,-0.0414,-0.0411,-0.0365,-0.0352,-0.0336,-0.0296,-0.0282,-0.0223,-0.0194,-0.0121,-0.0077,-0.0041,0.0013,0.0053,0.0089,0.0087,0.0091,0.0118,0.0185,0.0205,0.0215,0.011,0.0111,0.0112,0.0213,0,-0.048,-0.0493,-0.046,-0.0471,-0.0471,-0.0418,-0.0407,-0.0364,-0.0316,-0.0275,-0.0195,-0.0146,-0.0101,-0.0072,-0.0027,0.0065,0.0105,0.0059,0.0201,0.0206,0.0216,0.0223,0.0202,0.029,0.022,0.0221,0.0222,0,-0.0511,-0.0515,-0.0537,-0.0522,-0.0516,-0.0514,-0.0479,-0.0459,-0.0387,-0.0348,-0.0284,-0.0215,-0.0137,-0.0102,0.0037,0.0004,0.0084,0.0152,0.0158,0.0207,0.0239,0.0292,0.0306,0.0235,0.0234,0.0233,0.0232,0,-0.0562,-0.0562,-0.0584,-0.0579,-0.0556,-0.0556,-0.0541,-0.0483,-0.0463,-0.0389,-0.0361,-0.0259,-0.0198,-0.0093,0.0048,0.0043,0.02,0.0216,0.0309,0.0312,0.0337,0.034,0.0307,0.0306,0.0306,0.0306,0.0306,0,-0.0602,-0.0616,-0.0613,-0.0623,-0.0646,-0.0608,-0.0612,-0.0579,-0.0527,-0.0498,-0.0403,-0.0352,-0.0194,-0.0081,0.0035,0.0196,0.0194,0.0307,0.034,0.0312,0.0311,0.03,0.0298,0.031,0.0309,0.0308,0.0307,0,-0.0645,-0.0643,-0.0669,-0.0668,-0.067,-0.0685,-0.0667,-0.0663,-0.0608,-0.0568,-0.0545,-0.0412,-0.0259,-0.01,0.0089,0.0186,0.0333,0.0388,0.0342,0.0368,0.0417,0.041,0.0504,0.0506,0.0507,0.0508,0.0509,0,-0.0666,-0.0686,-0.071,-0.0732,-0.0734,-0.0747,-0.0754,-0.0711,-0.0697,-0.0598,-0.0579,-0.0427,-0.0303,-0.0024,0.0171,0.0379,0.0379,0.0473,0.0463,0.0415,0.0438,0.0429,0.0421,0.0472,0.0472,0.0473,0.0473,0,-0.0704,-0.0715,-0.0737,-0.0789,-0.0811,-0.0829,-0.083,-0.0831,-0.0766,-0.071,-0.0604,-0.0496,-0.0227,0.0006,0.0266,0.0384,0.0436,0.0489,0.0466,0.0417,0.0391,0.0411,0.0403,0.0477,0.0477,0.0477,0.0476,0.0476,-0.0727,-0.0759,-0.0795,-0.0838,-0.0869,-0.0894,-0.09,-0.0877,-0.0838,-0.0731,-0.0628,-0.0441,-0.0223,0.0155,0.0334,0.0499,0.0502,0.0548,0.0544,0.054,0.0511,0.0488,0.0586,0.0587,0.0587,0.0587,0.0587,0,-0.0751,-0.0789,-0.084,-0.0889,-0.0927,-0.093,-0.0935,-0.0912,-0.0854,-0.0726,-0.0592,-0.0345,-0.0075,0.0144,0.0411,0.0569,0.0554,0.059,0.0539,0.0535,0.0531,0.0499,0.0573,0.0573,0.0574,0.0574,0,0,-0.0766,-0.0819,-0.0849,-0.092,-0.0954,-0.0977,-0.0973,-0.0919,-0.0825,-0.0691,-0.0542,-0.0332,-0.0065,0.0119,0.0318,0.0453,0.0451,0.0464,0.0461,0.0374,0.0368,0.0496,0.044,0,0,0,0,0]}],[{"header":{"parameterUnit":"m.s-1","parameterCategory":2,"la1":30.2991,"la2":30.254,"lo1":-89.0895,"lo2":-89.0444,"dy":0.0017,"dx":0.0017,"nx":28,"ny":28,"refTime":"2025-11-05T03:00:00:Z","depth":"4","parameterNumber":2,"parameterNumberName":"U-component_of_CURRENTS"},"data":[0,0,0,0,0,0,0,0,0,0,0,0,0,0,0,0,0,0,0,0,0,0,0,0,0,0,0,0,0,0,0,0,0,0,0,0,0,0,0,0,0,0,0,0,0,0,0,0,0,0,0,0,0,0,0,0,0,0,-0.1364,-0.1364,0,-0.1403,-0.1403,-0.1403,-0.1419,-0.1419,-0.1419,-0.1419,-0.1463,-0.1465,-0.1466,0,0,0,0,0,0,0,0,0,0,0,0,0,-0.131,-0.1311,-0.1363,-0.1364,-0.1365,-0.1403,-0.1403,-0.1404,-0.1419,-0.1419,-0.1419,-0.1419,-0.1463,-0.1465,-0.1466,0,0,0,0,0,0,0,0,0,0,0,0,0,-0.1339,-0.1311,-0.1363,-0.1377,-0.1379,-0.1402,-0.1403,-0.1404,-0.1419,-0.1419,-0.1419,-0.1419,-0.1463,-0.1464,-0.1466,-0.148,0,0,-0.1472,-0.1473,0,0,0,0,0,0,0,0,-0.1337,-0.1341,-0.1375,-0.1376,-0.1378,-0.1406,-0.1401,-0.1429,-0.1419,-0.1403,-0.1419,-0.1419,-0.1445,-0.1449,-0.1455,-0.1482,-0.1484,-0.1472,-0.1473,-0.1474,-0.1475,0,0,0,0,0,0,0,-0.1335,-0.1339,-0.1378,-0.1375,-0.1377,-0.1384,-0.1388,-0.1406,-0.1424,-0.1405,-0.1406,-0.1411,-0.1446,-0.1453,-0.1457,-0.1484,-0.1472,-0.1474,-0.1475,-0.1476,-0.1577,-0.1579,0,0,0,0,0,0,-0.1331,-0.1338,-0.1377,-0.138,-0.1358,-0.1385,-0.1389,-0.1397,-0.1424,-0.1428,-0.1411,-0.1412,-0.145,-0.1454,-0.1458,-0.1535,-0.1474,-0.1476,-0.1477,-0.1576,-0.1578,-0.1579,0,0,0,0,0,0,-0.133,-0.1335,-0.1376,-0.136,-0.1365,-0.1386,-0.1394,-0.1398,-0.1431,-0.1429,-0.1433,-0.1444,-0.145,-0.1456,-0.1501,-0.1534,-0.1477,-0.1478,-0.1574,-0.1576,-0.1579,-0.165,0,0,0,0,0,0,-0.1328,-0.1334,-0.135,-0.136,-0.1366,-0.1412,-0.1395,-0.1399,-0.1433,-0.1435,-0.1458,-0.146,-0.1451,-0.1498,-0.1503,-0.1536,-0.148,-0.1572,-0.1575,-0.1578,-0.1646,-0.1655,-0.1662,0,0,0,0,0,-0.1326,-0.1347,-0.1351,-0.1356,-0.1384,-0.1414,-0.1419,-0.1432,-0.1435,-0.146,-0.1475,-0.1461,-0.152,-0.1502,-0.1506,-0.1541,-0.1571,-0.1574,-0.1578,-0.1642,-0.1653,-0.1662,0,0,0,0,0,0,-0.1329,-0.1351,-0.1355,-0.1381,-0.1406,-0.1417,-0.1443,-0.1452,-0.1484,-0.1492,-0.1487,-0.1491,-0.154,-0.1534,-0.1514,-0.1578,-0.1541,-0.1546,-0.1589,-0.1599,-0.1607,-0.1593,-0.1481,0,0,0,0,0,-0.1338,-0.1361,-0.1381,-0.1403,-0.142,-0.1438,-0.1456,-0.1468,-0.149,-0.1505,-0.1522,-0.1537,-0.1555,-0.1573,-0.1586,-0.1629,-0.16,-0.1652,-0.166,-0.1667,-0.166,-0.1652,-0.1659,-0.1591,-0.1591,-0.1591,0,0,-0.1341,-0.1359,-0.1371,-0.1407,-0.1426,-0.1455,-0.145,-0.149,-0.1517,-0.1505,-0.1559,-0.1571,-0.1572,-0.1615,-0.1636,-0.1618,-0.1673,-0.1672,-0.1678,-0.1666,-0.1656,-0.1663,-0.1668,-0.1594,-0.1593,-0.1593,0,0,-0.1352,-0.1383,-0.1402,-0.1432,-0.1472,-0.1488,-0.1508,-0.1542,-0.1567,-0.1617,-0.1611,-0.1647,-0.1682,-0.1687,-0.1692,-0.1757,-0.1716,-0.1765,-0.18,-0.1794,-0.1798,-0.1802,-0.1778,-0.1779,-0.1771,-0.1771,-0.1771,0,-0.1355,-0.1381,-0.1414,-0.1443,-0.1468,-0.1507,-0.1533,-0.1568,-0.1615,-0.1632,-0.1645,-0.1693,-0.1712,-0.174,-0.1768,-0.1775,-0.1753,-0.1763,-0.1803,-0.1806,-0.1809,-0.1782,-0.1783,-0.1775,-0.1774,-0.1774,-0.1773,0,-0.137,-0.1405,-0.1426,-0.1471,-0.1507,-0.1544,-0.159,-0.1635,-0.1673,-0.1694,-0.1747,-0.1774,-0.1792,-0.1817,-0.1818,-0.1851,-0.1823,-0.1812,-0.1774,-0.182,-0.1789,-0.1788,-0.178,-0.1779,-0.1778,-0.1777,0,0,-0.1334,-0.1416,-0.1425,-0.1452,-0.1526,-0.1553,-0.1615,-0.1664,-0.1694,-0.1756,-0.1782,-0.1844,-0.1854,-0.1859,-0.187,-0.1883,-0.1905,-0.1865,-0.1863,-0.1834,-0.1873,-0.1751,-0.1738,-0.1899,-0.1899,-0.1899,-0.1845,0,-0.1333,-0.1384,-0.1429,-0.1486,-0.1517,-0.1579,-0.1627,-0.1682,-0.1732,-0.1775,-0.1814,-0.1848,-0.187,-0.1886,-0.1906,-0.1904,-0.1904,-0.1919,-0.1838,-0.1836,-0.1716,-0.1734,-0.19,-0.1844,-0.1843,-0.1843,-0.1843,0,-0.1325,-0.1364,-0.1414,-0.1491,-0.151,-0.1553,-0.1628,-0.1675,-0.1744,-0.1781,-0.1822,-0.1846,-0.1889,-0.1896,-0.1907,-0.1913,-0.1898,-0.1894,-0.1891,-0.1746,-0.1711,-0.1788,-0.184,-0.184,-0.1841,-0.1841,-0.1841,0,-0.1273,-0.1352,-0.1391,-0.1421,-0.1513,-0.1548,-0.1597,-0.1673,-0.1712,-0.1779,-0.1805,-0.1848,-0.1872,-0.1872,-0.188,-0.1893,-0.1868,-0.1876,-0.1744,-0.1734,-0.1829,-0.1825,-0.1861,-0.1861,-0.1862,-0.1862,-0.1862,0,-0.1245,-0.1281,-0.1374,-0.1398,-0.1444,-0.1519,-0.1572,-0.1627,-0.1697,-0.1727,-0.1799,-0.1814,-0.187,-0.1867,-0.1865,-0.179,-0.1848,-0.1737,-0.1709,-0.1862,-0.1862,-0.1828,-0.1825,-0.186,-0.186,-0.1861,-0.1861,0,-0.1183,-0.1247,-0.1298,-0.1393,-0.1424,-0.1457,-0.1553,-0.1584,-0.1663,-0.17,-0.1721,-0.179,-0.1781,-0.1802,-0.1795,-0.175,-0.1704,-0.1657,-0.1804,-0.1787,-0.1579,-0.1581,-0.1502,-0.1497,-0.1493,-0.1489,-0.1486,0,-0.1154,-0.1175,-0.1278,-0.1306,-0.1353,-0.1417,-0.1456,-0.1553,-0.1581,-0.1668,-0.1666,-0.1693,-0.1721,-0.1599,-0.1646,-0.1593,-0.1583,-0.1544,-0.1581,-0.156,-0.1542,-0.155,-0.1557,-0.148,-0.1479,-0.1478,-0.1477,0,-0.1093,-0.114,-0.1181,-0.1236,-0.1285,-0.1332,-0.1393,-0.14,-0.1496,-0.1584,-0.1558,-0.1543,-0.1521,-0.1509,-0.1467,-0.1443,-0.1567,-0.1502,-0.1511,-0.1545,-0.1533,-0.152,-0.1532,-0.1462,-0.1464,-0.1466,-0.1467,0,-0.1045,-0.1056,-0.1112,-0.1147,-0.1206,-0.1218,-0.1268,-0.129,-0.1326,-0.1424,-0.1408,-0.144,-0.1498,-0.1429,-0.1399,-0.1353,-0.1345,-0.1313,-0.1332,-0.1348,-0.1325,-0.1289,-0.1107,0,0,0,0,0,-0.099,-0.0988,-0.1016,-0.1049,-0.1102,-0.113,-0.1211,-0.1264,-0.1355,-0.1294,-0.1346,-0.1318,-0.1274,-0.1297,-0.1216,-0.1336,-0.1354,-0.1239,-0.1328,-0.1384,-0.14,-0.1389,0,0,0,0,0,0,-0.0952,-0.0976,-0.098,-0.0953,-0.0953,-0.0996,-0.1039,-0.1106,-0.1082,-0.1178,-0.1156,-0.1231,-0.1204,-0.1285,-0.1184,-0.119,-0.1218,-0.1268,-0.1264,-0.1375,-0.1389,-0.1403,-0.1397,0,0,0,0,0]},{"header":{"parameterUnit":"m.s-1","parameterCategory":2,"la1":30.2991,"la2":30.254,"lo1":-89.0895,"lo2":-89.0444,"dy":0.0017,"dx":0.0017,"nx":28,"ny":28,"refTime":"2025-11-05T03:00:00:Z","depth":"4","parameterNumber":3,"parameterNumberName":"V-component_of_CURRENTS"},"data":[0,0,0,0,0,0,0,0,0,0,0,0,0,0,0,0,0,0,0,0,0,0,0,0,0,0,0,0,0,0,0,0,0,0,0,0,0,0,0,0,0,0,0,0,0,0,0,0,0,0,0,0,0,0,0,0,0,0,-0.0139,-0.0139,0,-0.0095,-0.0094,-0.0094,-0.0063,-0.0063,-0.0062,-0.0062,0.0009,0.001,0.0012,0,0,0,0,0,0,0,0,0,0,0,0,0,-0.0189,-0.0189,-0.0139,-0.0139,-0.0138,-0.0095,-0.0094,-0.0094,-0.0063,-0.0063,-0.0062,-0.0062,0.0008,0.001,0.0012,0,0,0,0,0,0,0,0,0,0,0,0,0,-0.0158,-0.0188,-0.0139,-0.0118,-0.0116,-0.0095,-0.0094,-0.0094,-0.0063,-0.0063,-0.0062,-0.0062,0.0008,0.001,0.0013,0.0022,0,0,0.002,0.0021,0,0,0,0,0,0,0,0,-0.016,-0.0156,-0.0121,-0.0119,-0.0117,-0.0085,-0.0086,-0.0054,-0.0063,-0.0082,-0.0062,-0.0062,-0.0021,-0.0016,-0.0008,0.0026,0.0029,0.0021,0.0022,0.0023,0.0024,0,0,0,0,0,0,0,-0.0162,-0.0158,-0.0121,-0.0121,-0.0118,-0.0108,-0.0103,-0.008,-0.0053,-0.0081,-0.0078,-0.0074,-0.0019,-0.001,-0.0006,0.003,0.0021,0.0023,0.0024,0.0025,0.009,0.009,0,0,0,0,0,0,-0.0169,-0.016,-0.0122,-0.012,-0.0139,-0.0108,-0.0102,-0.0095,-0.0053,-0.0047,-0.0075,-0.0073,-0.0015,-0.0009,-0.0003,0.0021,0.0023,0.0026,0.0027,0.0089,0.009,0.009,0,0,0,0,0,0,-0.0171,-0.0166,-0.0124,-0.014,-0.0134,-0.0107,-0.0099,-0.0094,-0.0084,-0.0049,-0.0042,-0.007,-0.0014,-0.0007,0.0017,0.0023,0.0027,0.0029,0.0089,0.009,0.009,0.0062,0,0,0,0,0,0,-0.0172,-0.0167,-0.0169,-0.014,-0.0133,-0.0114,-0.0099,-0.0093,-0.0083,-0.008,-0.0043,-0.0036,-0.0013,0.0013,0.0019,0.0027,0.0031,0.0089,0.0089,0.009,0.0062,0.0061,0.006,0,0,0,0,0,-0.0174,-0.0178,-0.0169,-0.0165,-0.0135,-0.0115,-0.011,-0.009,-0.0083,-0.008,-0.0056,-0.0037,0.002,0.0015,0.0022,0.0031,0.0089,0.0089,0.009,0.0063,0.0061,0.006,0,0,0,0,0,0,-0.0205,-0.0174,-0.0164,-0.0159,-0.0139,-0.011,-0.011,-0.0093,-0.0072,-0.0072,-0.0037,-0.0028,-0.0005,0.0015,0.0009,0.005,0.0058,0.006,0.0035,0.0034,0.0033,0.0021,0.0033,0,0,0,0,0,-0.0212,-0.0206,-0.0175,-0.0174,-0.0165,-0.0138,-0.0129,-0.0114,-0.009,-0.0081,-0.0053,-0.0025,0.0003,0.0019,0.0044,0.0065,0.009,0.0076,0.0075,0.0073,0.0069,0.0116,0.0118,0.0091,0.0091,0.0091,0,0,-0.0227,-0.0209,-0.0207,-0.018,-0.0165,-0.0158,-0.0132,-0.0121,-0.0114,-0.0076,-0.006,-0.003,0.0007,0.0031,0.0044,0.0049,0.0094,0.0074,0.0072,0.0069,0.0116,0.0119,0.0121,0.0091,0.0091,0.0091,0,0,-0.0254,-0.0235,-0.0238,-0.0221,-0.0198,-0.0178,-0.0176,-0.0145,-0.0128,-0.0109,-0.0077,-0.0043,-0.0008,0.0026,0.0046,0.0053,0.0084,0.006,0.0047,0.0092,0.0094,0.0097,0.0131,0.0136,0.0061,0.0061,0.0061,0,-0.0274,-0.0269,-0.0238,-0.0234,-0.0227,-0.019,-0.0193,-0.017,-0.0135,-0.012,-0.011,-0.0041,-0.0008,0.0032,0.0035,0.0051,0.0074,0.0049,0.009,0.0093,0.0096,0.013,0.0137,0.006,0.006,0.006,0.006,0,-0.0297,-0.0295,-0.0296,-0.0278,-0.0265,-0.0262,-0.0226,-0.0211,-0.0187,-0.0157,-0.0115,-0.0065,-0.0024,-0.0003,0.0018,0.0058,0.0067,0.0081,0.0092,0.0097,0.0133,0.014,0.0058,0.0058,0.0059,0.0059,0,0,-0.0333,-0.0317,-0.0318,-0.0319,-0.0288,-0.028,-0.0267,-0.0237,-0.0227,-0.0179,-0.0155,-0.0093,-0.0059,-0.0034,0.0007,0.005,0.0096,0.0069,0.0072,0.0099,0.0187,0.0162,0.0169,0.0116,0.0117,0.0118,0.0202,0,-0.036,-0.0373,-0.0351,-0.0363,-0.0364,-0.0328,-0.0319,-0.0286,-0.0251,-0.0218,-0.0148,-0.0111,-0.0072,-0.0052,-0.0001,0.0071,0.0115,0.0072,0.0181,0.0184,0.0159,0.0176,0.0122,0.0208,0.021,0.0211,0.0212,0,-0.0381,-0.0388,-0.0409,-0.0403,-0.04,-0.0403,-0.0379,-0.0364,-0.0304,-0.0274,-0.0217,-0.0164,-0.0088,-0.0061,0.0068,0.0037,0.0105,0.0163,0.0168,0.0159,0.0174,0.0204,0.0226,0.0225,0.0224,0.0223,0.0222,0,-0.0415,-0.0422,-0.0444,-0.0442,-0.0431,-0.0436,-0.0428,-0.0384,-0.0369,-0.0309,-0.0288,-0.0192,-0.0144,-0.0043,0.0075,0.0073,0.0212,0.0228,0.0273,0.0272,0.0281,0.0277,0.0316,0.0316,0.0316,0.0316,0.0316,0,-0.0439,-0.0456,-0.0468,-0.0478,-0.0504,-0.0479,-0.0489,-0.0465,-0.0426,-0.0404,-0.0323,-0.0281,-0.0138,-0.004,0.0065,0.0188,0.0208,0.0272,0.0294,0.0266,0.026,0.0286,0.0281,0.0319,0.0318,0.0318,0.0317,0,-0.0462,-0.0471,-0.0499,-0.0512,-0.0521,-0.0539,-0.054,-0.0539,-0.0499,-0.0469,-0.0452,-0.034,-0.0211,-0.0072,0.0098,0.0168,0.0292,0.033,0.0282,0.03,0.0325,0.0318,0.039,0.039,0.039,0.039,0.039,0,-0.0472,-0.0491,-0.0534,-0.056,-0.0571,-0.0594,-0.0608,-0.0581,-0.0572,-0.0499,-0.0482,-0.0363,-0.0274,-0.0051,0.0088,0.0279,0.0304,0.0357,0.035,0.0319,0.0334,0.0327,0.032,0.039,0.039,0.039,0.039,0,-0.049,-0.0513,-0.0538,-0.0599,-0.0631,-0.0657,-0.067,-0.0668,-0.0623,-0.0593,-0.049,-0.0367,-0.0226,-0.0052,0.0089,0.0228,0.0317,0.0356,0.0358,0.0352,0.032,0.0332,0.0326,0.0389,0.039,0.039,0.039,0,-0.0504,-0.0533,-0.0578,-0.0624,-0.0673,-0.07,-0.0704,-0.0675,-0.0654,-0.0566,-0.0533,-0.037,-0.0269,-0.0078,0.0056,0.0182,0.0217,0.025,0.0258,0.026,0.0191,0.0129,0.0162,0,0,0,0,0,-0.0511,-0.0547,-0.0598,-0.065,-0.0699,-0.0722,-0.0733,-0.0723,-0.0683,-0.0614,-0.0568,-0.0429,-0.0216,-0.012,0.0005,0.0042,0.0222,0.0188,0.026,0.0388,0.0388,0.0327,0,0,0,0,0,0,-0.0518,-0.0569,-0.0597,-0.0658,-0.0696,-0.0741,-0.0748,-0.0723,-0.067,-0.0613,-0.0494,-0.0417,-0.0207,-0.0285,0.0002,0.004,0.0098,0.0294,0.0297,0.0387,0.0388,0.0388,0.0325,0,0,0,0,0]}]]